Date String (YYYY-MM-DD hh:mm:ss) UTC,Instrument flags,absolute air pressure of the measurement (hPa),sample flow rate (lpm),inlet stack bypass flow (lpm),air temperature of the measurement (°C),ambient temperature measured by the external sensor (°C),aerosol sample conditioner tube jacket temperature (°C),OPC LED temperature (°C),internal box temperature (°C),relative humidity of the measurement (%),span deviation,mass concentration of particles derived from Lorenz-Mie calculation of OPC scattering (μg/m³),mass concentration of particles derived from Lorenz-Mie calculation of OPC scattering (μg/m³),mass concentration of particles derived from Lorenz-Mie calculation of OPC scattering (μg/m³)
DateTimeUTC,F1_M11,P_M11,Q1_M11,Q2_M11,T1_M11,T2_M11,T3_M11,T4_M11,T5_M11,U1_M11,ZSPAN_M11,X0_M11,X2_M11,X1_M11
2023-11-29 19:00:00,SystemResetWarning,0823.4,5.01,000.00,022.4,021.8,000.0,030.4,023.8,5.0,0000.0,0004.33,0001.15,0000.87
2023-11-29 19:01:00,SystemResetWarning,0823.5,5.00,000.00,022.4,021.8,000.0,030.4,023.8,4.9,0000.0,0003.87,0001.16,0000.87
2023-11-29 19:02:00,SystemResetWarning,0823.5,5.01,000.00,022.4,021.8,000.0,030.5,023.8,5.1,0000.0,0003.52,0001.14,0000.87
2023-11-29 19:03:00,SystemResetWarning,0823.5,4.99,000.00,022.4,021.8,000.0,030.5,023.8,5.3,0000.0,0003.57,0001.11,0000.86
2023-11-29 19:04:00,SystemResetWarning,0823.4,4.99,000.00,022.5,021.8,000.0,030.5,023.9,5.1,0000.0,0003.54,0001.10,0000.86
2023-11-29 19:05:00,SystemResetWarning,0823.4,5.00,000.00,022.5,021.8,000.0,030.5,023.9,5.5,0000.0,0003.34,0001.07,0000.84
2023-11-29 19:06:00,SystemResetWarning,0823.4,5.01,000.00,022.5,021.8,000.0,030.5,023.9,5.7,0000.0,0003.27,0001.04,0000.83
2023-11-29 19:07:00,SystemResetWarning,0823.4,5.00,000.00,022.5,021.9,000.0,030.6,023.9,5.4,0000.0,0003.25,0001.03,0000.81
2023-11-29 19:08:00,SystemResetWarning,0823.4,5.00,000.00,022.6,021.9,000.0,030.6,024.0,5.6,0000.0,0003.24,0001.01,0000.80
2023-11-29 19:09:00,SystemResetWarning,0823.4,5.00,000.00,022.6,021.9,000.0,030.6,024.0,5.9,0000.0,0003.20,0000.99,0000.79
2023-11-29 19:10:00,SystemResetWarning,0823.4,5.00,000.00,022.6,022.0,000.0,030.6,024.0,5.6,0000.0,0003.18,0000.98,0000.78
2023-11-29 19:11:00,SystemResetWarning,0823.3,4.99,000.00,022.6,022.0,000.0,030.6,024.0,5.5,0000.0,0003.17,0000.98,0000.78
2023-11-29 19:12:00,SystemResetWarning,0823.3,4.99,000.00,022.6,022.0,000.0,030.7,024.1,5.9,0000.0,0003.19,0000.99,0000.78
2023-11-29 19:13:00,SystemResetWarning,0823.3,5.00,000.00,022.7,022.1,000.0,030.7,024.1,5.8,0000.0,0001.73,0000.97,0000.78
2023-11-29 19:14:00,SystemResetWarning,0823.3,5.01,000.00,022.7,022.1,000.0,030.7,024.1,5.7,0000.0,0001.41,0000.97,0000.78
2023-11-29 19:15:00,SystemResetWarning,0823.3,5.00,000.00,022.7,022.1,000.0,030.7,024.1,5.5,0000.0,0001.45,0000.95,0000.77
2023-11-29 19:16:00,SystemResetWarning,0823.3,5.01,000.00,022.7,022.1,000.0,030.8,024.2,5.6,0000.0,0001.44,0000.93,0000.78
2023-11-29 19:17:00,SystemResetWarning,0823.2,5.00,000.00,022.8,022.1,000.0,030.8,024.2,5.6,0000.0,0001.43,0000.94,0000.79
2023-11-29 19:18:00,SystemResetWarning,0823.2,4.99,000.00,022.8,022.2,000.0,030.8,024.2,5.9,0000.0,0001.37,0000.91,0000.79
2023-11-29 19:19:00,SystemResetWarning,0823.1,5.00,000.00,022.8,022.2,000.0,030.8,024.3,5.8,0000.0,0001.37,0000.91,0000.79
2023-11-29 19:20:00,SystemResetWarning,0823.0,4.99,000.00,022.8,022.2,000.0,030.8,024.3,5.7,0000.0,0001.53,0000.95,0000.80
2023-11-29 19:21:00,SystemResetWarning,0823.1,5.01,000.00,022.9,022.3,000.0,030.9,024.3,6.0,0000.0,0001.67,0000.98,0000.82
2023-11-29 19:22:00,SystemResetWarning,0823.1,5.00,000.00,022.9,022.3,000.0,030.9,024.3,6.4,0000.0,0001.65,0000.97,0000.82
2023-11-29 19:23:00,SystemResetWarning,0823.0,5.00,000.00,022.9,022.3,000.0,030.9,024.3,6.0,0000.0,0001.62,0000.95,0000.82
2023-11-29 19:24:00,SystemResetWarning,0823.0,5.00,000.00,022.9,022.3,000.0,030.9,024.4,5.8,0000.0,0001.66,0000.96,0000.82
2023-11-29 19:25:00,SystemResetWarning,0822.9,5.01,000.00,023.0,022.3,000.0,031.0,024.4,5.8,0000.0,0001.68,0000.96,0000.82
2023-11-29 19:26:00,SystemResetWarning,0822.8,5.00,000.00,023.0,022.3,000.0,031.0,024.4,5.9,0000.0,0001.65,0000.99,0000.84
2023-11-29 19:27:00,SystemResetWarning,0822.8,5.00,000.00,023.0,022.4,000.0,031.0,024.4,6.5,0000.0,0001.65,0001.04,0000.85
2023-11-29 19:28:00,SystemResetWarning,0823.0,5.00,000.00,023.0,022.4,000.0,031.0,024.4,6.2,0000.0,0001.77,0001.08,0000.86
2023-11-29 19:29:00,SystemResetWarning,0822.8,5.00,000.00,023.0,022.4,000.0,031.0,024.5,6.4,0000.0,0001.82,0001.11,0000.86
2023-11-29 19:30:00,SystemResetWarning,0822.8,5.00,000.00,023.1,022.4,000.0,031.1,024.5,6.5,0000.0,0001.87,0001.14,0000.87
2023-11-29 19:31:00,SystemResetWarning,0822.9,5.00,000.00,023.1,022.5,000.0,031.1,024.5,6.2,0000.0,0001.77,0001.14,0000.88
2023-11-29 19:32:00,SystemResetWarning,0823.0,5.00,000.00,023.1,022.5,000.0,031.1,024.6,6.3,0000.0,0001.70,0001.15,0000.90
2023-11-29 19:33:00,SystemResetWarning,0822.9,5.01,000.00,023.1,022.5,000.0,031.1,024.6,6.5,0000.0,0001.77,0001.21,0000.92
2023-11-29 19:34:00,SystemResetWarning,0822.8,5.01,000.00,023.2,022.5,000.0,031.2,024.6,6.5,0000.0,0001.82,0001.25,0000.94
2023-11-29 19:35:00,SystemResetWarning,0823.0,4.99,000.00,023.2,022.6,000.0,031.2,024.6,6.4,0000.0,0001.81,0001.26,0000.95
2023-11-29 19:36:00,SystemResetWarning,0822.6,4.99,000.00,023.2,022.6,000.0,031.2,024.7,6.5,0000.0,0001.83,0001.29,0000.97
2023-11-29 19:37:00,SystemResetWarning,0822.7,5.00,000.00,023.2,022.6,000.0,031.2,024.7,6.2,0000.0,0001.87,0001.31,0000.98
2023-11-29 19:38:00,SystemResetWarning,0822.8,4.99,000.00,023.2,022.6,000.0,031.2,024.7,6.5,0000.0,0001.89,0001.30,0000.98
2023-11-29 19:39:00,SystemResetWarning,0822.7,5.00,000.00,023.2,022.6,000.0,031.3,024.7,6.7,0000.0,0001.88,0001.28,0000.98
2023-11-29 19:40:00,SystemResetWarning,0822.8,4.99,000.00,023.3,022.6,000.0,031.3,024.7,6.0,0000.0,0002.02,0001.28,0000.97
2023-11-29 19:41:00,SystemResetWarning,0822.7,5.00,000.00,023.3,022.6,000.0,031.3,024.7,6.1,0000.0,0002.04,0001.26,0000.97
2023-11-29 19:42:00,SystemResetWarning,0822.7,4.99,000.00,023.3,022.6,000.0,031.3,024.7,6.0,0000.0,0001.97,0001.23,0000.95
2023-11-29 19:43:00,SystemResetWarning,0822.7,5.00,000.00,023.3,022.6,000.0,031.3,024.7,6.2,0000.0,0001.92,0001.20,0000.94
2023-11-29 19:44:00,SystemResetWarning,0822.8,5.01,000.00,023.3,022.6,000.0,031.4,024.7,6.2,0000.0,0002.01,0001.21,0000.92
2023-11-29 19:45:00,SystemResetWarning,0822.9,5.01,000.00,023.3,022.6,000.0,031.4,024.7,7.2,0000.0,0002.03,0001.19,0000.91
2023-11-29 19:46:00,SystemResetWarning,0823.2,5.00,000.00,023.3,022.5,000.0,031.4,024.7,7.7,0000.0,0002.00,0001.17,0000.89
2023-11-29 19:47:00,SystemResetWarning,0823.3,5.00,000.00,023.3,022.6,000.0,031.4,024.7,7.8,0000.0,0002.02,0001.17,0000.87
2023-11-29 19:48:00,SystemResetWarning,0822.9,5.00,000.00,023.3,022.6,000.0,031.4,024.7,7.6,0000.0,0002.00,0001.13,0000.84
2023-11-29 19:49:00,SystemResetWarning,0822.9,5.01,000.00,023.4,022.6,000.0,031.4,024.8,7.6,0000.0,0002.39,0001.12,0000.83
2023-11-29 19:50:00,SystemResetWarning,0823.4,5.00,000.00,023.4,022.6,000.0,031.4,024.8,7.8,0000.0,0002.78,0001.12,0000.84
2023-11-29 19:51:00,SystemResetWarning,0823.1,4.99,000.00,023.4,022.6,000.0,031.5,024.8,7.6,0000.0,0002.74,0001.18,0000.89
2023-11-29 19:52:00,SystemResetWarning,0822.8,5.01,000.00,023.4,022.7,000.0,031.5,024.8,7.9,0000.0,0002.86,0001.25,0000.95
2023-11-29 19:53:00,SystemResetWarning,0822.6,5.01,000.00,023.4,022.7,000.0,031.5,024.8,7.5,0000.0,0003.00,0001.35,0001.03
2023-11-29 19:54:00,SystemResetWarning,0822.7,4.99,000.00,023.4,022.7,000.0,031.5,024.9,6.7,0000.0,0003.37,0001.46,0001.11
2023-11-29 19:55:00,SystemResetWarning,0822.6,5.00,000.00,023.5,022.7,000.0,031.5,024.9,6.9,0000.0,0003.52,0001.52,0001.16
2023-11-29 19:56:00,SystemResetWarning,0822.6,5.00,000.00,023.5,022.8,000.0,031.6,024.9,7.3,0000.0,0003.56,0001.58,0001.23
2023-11-29 19:57:00,SystemResetWarning,0822.6,5.00,000.00,023.5,022.8,000.0,031.6,024.9,7.4,0000.0,0003.69,0001.67,0001.29
2023-11-29 19:58:00,SystemResetWarning,0822.6,5.00,000.00,023.5,022.8,000.0,031.6,024.9,7.2,0000.0,0003.83,0001.76,0001.35
2023-11-29 19:59:00,SystemResetWarning,0822.6,4.99,000.00,023.5,022.8,000.0,031.6,024.9,7.3,0000.0,0003.97,0001.87,0001.41
